sat.trackr.live / text

‹ back to catalog

STARLINK-1017

NORAD 44723 · 2019-074L

PAYLOAD ACTIVE UNKNOWN

§ Identity

Operator
Country
US
Launch date
2019-11-11
Launch site
AFETR
Launch vehicle
Mass (kg)
RCS (m²)

Purposes: comms

External: N2YO · Heavens-Above · Gunter

§ Orbital elements

Epoch: 2026-05-24T12:15:58.452480Z

Period
94.11 min
Inclination
53.0473°
Eccentricity
0.0005269
Mean motion
15.30198902 rev/d
Perigee alt
471.6 km
Apogee alt
478.8 km
Semi-major
6,853.4 km
B*
1.0734e-3
RAAN
179.8714°
Arg perigee
350.8425°
Mean anomaly
9.2477°
Rev number
36,055

§ Raw data

STARLINK-10171 44723U 19074L   26144.51109320  .00031576  00000+0  10734-2 0  99972 44723  53.0473 179.8714 0005269 350.8425   9.2477 15.30198902360556

JSON: /api/v1/satellites/44723 · /tle

For live sub-satellite position, see the globe view (requires WebGL).

§ Visibility from observer

Set your observer location to see the next 7 days of passes ≥ 10°. The values pass through the URL so the page stays shareable.

No JS? Fill the form by hand. The geolocation button needs JavaScript.